Showing default

SKYKRAFT-1, 55041

Orbit data source: Space-Track

SKYKRAFT-1, 55041 is a payload satellite owned by SkyKraft (AU) in SSO that was launched on Tue, 03 Jan 2023 UTC via an FALCON 9 launch vehicle from the Air Force Eastern Test Range (AFETR). Payload-class satellites include a variety of spacecraft equipped with specific instruments for various scientific and technological missions. These include communications satellites like Starlink; space stations such as the ISS; scientific satellites like the Hubble; Earth observation satellites from companies like Planet Labs, Umbra, and HawkEye 360; GPS; miniature CubeSats for education and research; and military/defense satellites.

Loading next visibility...
Identifier
55041, 2023-001AJ
Orbit
SSO
Country
Flag of AUAU / AUS
Related business
Manufacturer
SkyKraft
Mission
Operational Commercial Technology
Bus & Motor
SKYKRAFT CARRIER, AOCS
Mass
~100 kg wet, ~100 kg dry
Launch date (UTC)
2023-01-03 (3 years ago)
Launch vehicle
FALCON 9
Launch site
Air Force Eastern Test Range (AFETR)
Object type
Payload
Rocket body
Debris
Shape & HBR
Box, 0.3 m
Radar Cross Section
0.065 m², Medium (>0.1 m² and < 1m²)

Expand to show TLE details & history
Last TLE update: 10 hours ago

TLE from 10 hours ago
0 SKYKRAFT-1
1 55041U 23001AJ  25350.00800949  .00026265  00000-0  46211-3 0  9994
2 55041  97.3474  56.7955 0006423  29.2863 330.8748 15.50427661164521
Epoch: 2025-12-16T00:11Z
TLE epoch observation values (Epoch: 2025-12-16T00:11:32.019Z)
Latitude
-0.00002°
Longitude
-30.98631°
Altitude
414.798 km
Speed
7.664 km/s
True Right ascension
03h 47m 10s
True Declination
0° 00' 00"
Sunlit
Object was in full shadow at epoch
Visualization orbit readout
Latitude
Unknown
Longitude
Unknown
Altitude
Unknown
Speed
Unknown
Apparent Right ascension
Unknown
Apparent Declination
Unknown
Sunlit
N/A
Visualization observer readout
Local Sidereal Time
09:18:02
Azimuth
Unknown
Elevation
Unknown
Doppler factor
Unknown
Orbital elements
Apogee altitude
416.761 km
Perigee altitude
408.038 km
Semi-major axis
6,790.536 km
Eccentricity
0.00064
Inclination
97.3474°
RAAN
56.7955°
Arg. of periapsis
29.2863°
True anomaly
330.83895°
Mean anomaly
330.8748°
Eccentric anomaly
330.85688°
Mean motion
3.87871 °/min
Orbital period
92.81 mins
BSTAR
0.00046211
Loading maneuver chart data...
Computing Atmospheric mass density...

Documentation

Showing up to 5 results
|